Simultaneous Nadir Overpasses (SNOs) Predictions

Prediction of SNOs between LANDSAT-8 and METOP-B Satellite Orbit:

Table of predicted SNOs for the next 14.0 days since TLE Epoch: 8/4/2018
Index Date (LANDSAT-8) Time (LANDSAT-8) Lat,Lon (LANDSAT-8) SZA (LANDSAT-8 ) Date (METOP-B) Time (METOP-B) Lat,Lon (METOP-B) SZA (METOP-B ) Distance(km) Time Diff (sec)
1 08/06/2018 14:12:24 -81.24,-171.28 113.22 08/06/2018 14:11:23 -81.23,-171.22 113.24 0.95 61
2 08/06/2018 15:01:49 81.24, -3.51 66.81 08/06/2018 15:02:02 81.24, -3.54 66.81 0.44 13
3 08/09/2018 09:46:40 -81.24,-104.87 112.43 08/09/2018 09:45:42 -81.23,-104.95 112.46 1.52 58
4 08/09/2018 10:36:06 81.24, 62.87 67.60 08/09/2018 10:36:22 81.24, 62.69 67.59 3.03 16
5 08/12/2018 05:20:57 -81.23, -38.48 111.60 08/12/2018 05:20:01 -81.24, -38.31 111.60 3.05 56
6 08/12/2018 06:10:22 81.26, 129.60 68.48 08/12/2018 06:10:40 81.25, 129.68 68.50 1.37 18
7 08/15/2018 00:55:14 -81.23, 27.88 110.74 08/15/2018 00:54:21 -81.23, 27.95 110.75 1.26 53
8 08/15/2018 01:44:39 81.25,-164.06 69.34 08/15/2018 01:45:00 81.25,-164.11 69.34 0.96 21
9 08/17/2018 20:29:29 -81.24, 94.59 109.79 08/17/2018 20:28:39 -81.24, 94.58 109.82 0.69 50




NCC Satellite Simultaneous Nadir Overpasses (SNOs) Prediction Service
